Location: Grasslands National Park East Block
(49.0708°N, 106.5295°W)
Time: 03:10:25
(UTC-06:00)

Vanguard 1 - Pass Details

Date: 25 September 2019
Orbit: 653 x 3830 km, 34.3° (Epoch: 14 October)

Event Time Altitude Azimuth Distance (km) Brightness Sun altitude
Rises 02:15:27 0° 232° (SW) 7,420 - -38.9°
Reaches altitude 10° 02:20:27 10° 227° (SW) 6,644 - -38.6°
Exits shadow 02:38:54 46° 177° (S) 4,587 12.9 -37.1°
Maximum altitude 02:41:30 47° 163° (SSE) 4,496 13.0 -36.9°
Drops below altitude 10° 02:59:47 10° 98° (E) 5,864 14.3 -35.1°
Sets 03:03:48 0° 93° (E) 6,533 14.7 -34.7°
